{"data":{"norad_id":58320,"intl_designator":"2023-174BS","name":"FLOCK 4Q-2","alt_names":[],"object_type":"PAYLOAD","status":"ACTIVE","operator":null,"country":"US","launch_date":"2023-11-11","launch_site_code":"AFWTR","launch_vehicle":null,"mission":null,"orbit_class":"UNKNOWN","rcs_meters":null,"size_class":null,"mass_kg":null,"dimensions":null,"purposes":["earth_obs"],"wikipedia_slug":null,"has_3d_model":false,"image_url":null,"decayed_at":null,"tle_current":{"epoch":"2026-09-19T22:23:25.977120Z","epoch_age_seconds":63387,"freshness":"FRESH","line1":"1 58320U 23174BS  26262.93293955  .00022110  00000+0  34596-3 0  9993","line2":"2 58320  97.3809 353.9034 0006095 144.0305 216.1359 15.53752745160299","mean_motion":15.53752745,"eccentricity":0.0006095,"inclination_deg":97.3809,"raan_deg":353.9034,"arg_perigee_deg":144.0305,"mean_anomaly_deg":216.1359,"bstar":0.00034596,"rev_number":16029,"period_min":92.678838678415,"perigee_km":401.64587303304,"apogee_km":409.91546867381,"semimajor_km":6783.9176708534,"source":"CELESTRAK","updated_at":"2026-09-20T09:00:34.710496Z"}}}